[[{"header":{"parameterUnit":"m.s-1","parameterCategory":1,"la1":30.2991,"la2":30.254,"lo1":-89.0895,"lo2":-89.0444,"dy":0.0017,"dx":0.0017,"nx":28,"ny":28,"refTime":"2024-08-17T03:00:00:Z","depth":0,"parameterNumber":2,"parameterNumberName":"U-component_of_WINDS"},"data":[0,0,0,0,0,0,0,0,0,0,0,0,0,0,0,0,0,0,0,0,0,0,0,0,0,0,0,0,0,0,0,0,0,0,0,0,0,0,0,0,0,0,0,0,0,0,0,0,0,0,0,0,0,0,0,0,0,0,2.3883,2.3884,0,2.3944,2.3945,2.3945,2.3932,2.393,2.3929,2.3928,2.3989,2.3992,2.3994,0,0,0,0,0,0,0,0,0,0,0,0,0,2.3752,2.3755,2.3883,2.3884,2.3885,2.3944,2.3945,2.3945,2.3932,2.393,2.3929,2.3928,2.3988,2.3991,2.3995,0,0,0,0,0,0,0,0,0,0,0,0,0,2.381,2.3755,2.3883,2.3885,2.3886,2.3944,2.3945,2.3946,2.3932,2.393,2.3929,2.3927,2.3987,2.3991,2.3995,2.4054,0,0,2.4007,2.4009,0,0,0,0,0,0,0,0,2.3807,2.3815,2.3884,2.3885,2.3886,2.3928,2.3921,2.3982,2.3932,2.3914,2.3928,2.3926,2.397,2.3975,2.3991,2.4057,2.406,2.4008,2.401,2.4012,2.4013,0,0,0,0,0,0,0,2.3803,2.3813,2.3907,2.3885,2.3886,2.3882,2.3888,2.3932,2.3951,2.3916,2.3915,2.3922,2.397,2.3987,2.3992,2.4061,2.4008,2.4011,2.4014,2.4015,2.4174,2.4176,0,0,0,0,0,0,2.3799,2.3809,2.3905,2.3909,2.3842,2.3885,2.3893,2.3917,2.3951,2.3954,2.3924,2.3922,2.3981,2.3987,2.3994,2.4063,2.4012,2.4016,2.4018,2.4173,2.4175,2.4177,0,0,0,0,0,0,2.3796,2.3807,2.3903,2.3859,2.3871,2.389,2.3916,2.3919,2.3935,2.3957,2.396,2.3937,2.398,2.3988,2.4038,2.4065,2.4017,2.4021,2.4171,2.4173,2.4176,2.4202,0,0,0,0,0,0,2.3792,2.3806,2.383,2.386,2.3873,2.3947,2.3918,2.3921,2.3942,2.394,2.397,2.3973,2.3979,2.4033,2.4042,2.4069,2.4024,2.4168,2.4172,2.4175,2.4199,2.4205,2.4211,0,0,0,0,0,2.3788,2.3836,2.3831,2.3843,2.3903,2.3949,2.3957,2.3962,2.3944,2.3967,2.3981,2.3973,2.4061,2.4038,2.4049,2.4077,2.4167,2.4171,2.4175,2.4196,2.4204,2.4211,0,0,0,0,0,0,2.3809,2.384,2.3835,2.3895,2.3919,2.3947,2.3976,2.3971,2.4001,2.3998,2.4003,2.401,2.406,2.4074,2.4048,2.4134,2.4111,2.4117,2.4123,2.4131,2.4137,2.4131,2.4028,0,0,0,0,0,2.3821,2.3856,2.3881,2.3931,2.3943,2.3958,2.3978,2.398,2.4005,2.4016,2.4033,2.4057,2.409,2.4112,2.4143,2.4201,2.4206,2.4226,2.4232,2.4237,2.4242,2.427,2.4278,2.419,2.419,2.419,0,0,2.3846,2.3866,2.3889,2.3936,2.3955,2.3989,2.3966,2.4005,2.403,2.4021,2.4069,2.4082,2.411,2.4163,2.4188,2.4176,2.4267,2.4242,2.4246,2.4248,2.4275,2.4283,2.429,2.4193,2.4192,2.4192,0,0,2.3907,2.3928,2.397,2.3989,2.4019,2.4027,2.4037,2.4065,2.4073,2.4121,2.4114,2.4144,2.4201,2.422,2.4237,2.4303,2.4295,2.4313,2.4344,2.4371,2.4378,2.4384,2.4404,2.4412,2.4318,2.4318,2.4318,0,2.3934,2.3987,2.3992,2.4031,2.405,2.4043,2.4084,2.4103,2.4141,2.4154,2.4141,2.421,2.4229,2.4284,2.43,2.4315,2.4325,2.4309,2.4376,2.4383,2.4388,2.4408,2.4416,2.432,2.432,2.432,2.432,0,2.4016,2.4053,2.4083,2.4119,2.4142,2.4182,2.4192,2.4214,2.4214,2.4223,2.427,2.4292,2.4326,2.434,2.4341,2.4395,2.4387,2.4375,2.4351,2.4398,2.4416,2.4424,2.4323,2.4322,2.4322,2.4321,0,0,2.4094,2.4131,2.4141,2.4156,2.4186,2.4214,2.4253,2.4286,2.4303,2.433,2.436,2.4407,2.4396,2.4415,2.4417,2.4442,2.4488,2.4427,2.4427,2.4435,2.4546,2.4552,2.4561,2.4484,2.4485,2.4487,2.4542,0,2.4156,2.4224,2.4229,2.4289,2.4321,2.4313,2.4346,2.4368,2.4377,2.4405,2.4415,2.4447,2.4431,2.4442,2.4466,2.4478,2.451,2.4474,2.451,2.4511,2.4501,2.4571,2.4579,2.4631,2.455,2.4551,2.4552,0,2.4238,2.4265,2.4328,2.4351,2.4365,2.4394,2.4423,2.4451,2.4473,2.4478,2.4499,2.4497,2.4534,2.451,2.4559,2.4534,2.4549,2.4557,2.4559,2.4561,2.4533,2.4572,2.4648,2.4655,2.4564,2.4563,2.4562,0,2.4284,2.4337,2.438,2.4394,2.4422,2.4443,2.4455,2.4477,2.4495,2.4521,2.4532,2.4562,2.4577,2.4599,2.4604,2.4587,2.4653,2.463,2.4656,2.4656,2.4669,2.4668,2.4745,2.4683,2.4683,2.4683,2.4682,0,2.4352,2.439,2.4401,2.4428,2.4469,2.4474,2.4515,2.4526,2.4545,2.4572,2.4568,2.4594,2.46,2.4626,2.4631,2.4669,2.4677,2.4681,2.4681,2.468,2.4679,2.4688,2.4684,2.4685,2.4684,2.4684,2.4683,0,2.441,2.442,2.4466,2.4489,2.4495,2.4524,2.4543,2.4568,2.4576,2.461,2.4619,2.4631,2.4662,2.467,2.4707,2.4709,2.4754,2.4752,2.4746,2.4745,2.4769,2.4766,2.4854,2.4864,2.4797,2.4798,2.4798,0,2.4452,2.448,2.4505,2.4523,2.4537,2.4566,2.4584,2.4589,2.4608,2.4635,2.4656,2.4686,2.471,2.4758,2.477,2.4797,2.4794,2.4823,2.4798,2.4795,2.4791,2.4789,2.479,2.4827,2.4828,2.4829,2.4829,0,2.4523,2.4525,2.4552,2.458,2.4602,2.4624,2.4645,2.466,2.4667,2.4688,2.4719,2.4738,2.4774,2.4803,2.483,2.4841,2.4836,2.4837,2.4844,2.4842,2.4836,2.4836,2.4756,2.4835,2.4834,2.4834,2.4833,2.4833,2.4572,2.4596,2.4616,2.4646,2.4662,2.4681,2.4704,2.4714,2.474,2.477,2.4771,2.4804,2.4823,2.4859,2.4872,2.4896,2.4887,2.4898,2.4901,2.4903,2.4903,2.4834,2.4902,2.4902,2.4901,2.4901,2.4901,0,2.464,2.4653,2.468,2.4708,2.4731,2.4724,2.4746,2.4765,2.4793,2.4812,2.4835,2.4869,2.4896,2.4909,2.4936,2.4953,2.495,2.4959,2.4957,2.4959,2.4911,2.4901,2.496,2.496,2.496,2.496,2.496,2.496,2.4679,2.4718,2.4722,2.4768,2.478,2.4812,2.4825,2.4841,2.4856,2.4894,2.4916,2.4925,2.494,2.4967,2.4991,2.4994,2.5003,2.5012,2.5014,2.4969,2.4963,2.4957,2.4947,2.5015,2.5015,2.5059,2.506,2.506]},{"header":{"parameterUnit":"m.s-1","parameterCategory":1,"la1":30.2991,"la2":30.254,"lo1":-89.0895,"lo2":-89.0444,"dy":0.0017,"dx":0.0017,"nx":28,"ny":28,"refTime":"2024-08-17T03:00:00:Z","depth":0,"parameterNumber":3,"parameterNumberName":"V-component_of_WINDS"},"data":[0,0,0,0,0,0,0,0,0,0,0,0,0,0,0,0,0,0,0,0,0,0,0,0,0,0,0,0,0,0,0,0,0,0,0,0,0,0,0,0,0,0,0,0,0,0,0,0,0,0,0,0,0,0,0,0,0,0,3.7319,3.7319,0,3.7384,3.7384,3.7385,3.7339,3.7336,3.7334,3.7332,3.7395,3.7398,3.7402,0,0,0,0,0,0,0,0,0,0,0,0,0,3.7149,3.7152,3.7319,3.732,3.732,3.7384,3.7384,3.7385,3.7339,3.7336,3.7334,3.7332,3.7394,3.7398,3.7402,0,0,0,0,0,0,0,0,0,0,0,0,0,3.7219,3.7153,3.7319,3.7305,3.7304,3.7383,3.7384,3.7386,3.7339,3.7336,3.7333,3.733,3.7392,3.7398,3.7403,3.7498,0,0,3.7419,3.7422,0,0,0,0,0,0,0,0,3.7215,3.7225,3.7306,3.7306,3.7306,3.735,3.7347,3.7423,3.734,3.7326,3.7332,3.7329,3.7382,3.7388,3.7407,3.7501,3.7503,3.742,3.7423,3.7425,3.7427,0,0,0,0,0,0,0,3.721,3.7222,3.7344,3.7307,3.7307,3.7294,3.73,3.7361,3.737,3.7327,3.7324,3.7332,3.7381,3.7402,3.7408,3.7504,3.742,3.7424,3.7428,3.743,3.7676,3.7679,0,0,0,0,0,0,3.7207,3.7218,3.7342,3.7346,3.7252,3.7299,3.7307,3.7339,3.737,3.7372,3.7335,3.733,3.7394,3.7402,3.741,3.7521,3.7425,3.743,3.7433,3.7672,3.7676,3.768,0,0,0,0,0,0,3.7204,3.7219,3.734,3.7282,3.7296,3.7305,3.7342,3.7342,3.7362,3.7376,3.7377,3.7355,3.7392,3.7403,3.7476,3.7523,3.7433,3.7438,3.7668,3.7674,3.7678,3.7746,0,0,0,0,0,0,3.7199,3.7218,3.7256,3.7283,3.7299,3.7406,3.7345,3.7345,3.7372,3.7366,3.7394,3.7396,3.7391,3.7468,3.7481,3.7529,3.7442,3.7664,3.7671,3.7677,3.7739,3.7752,3.7763,0,0,0,0,0,3.7193,3.7272,3.7258,3.7273,3.7347,3.7409,3.7418,3.7411,3.7376,3.7413,3.7421,3.7395,3.7516,3.7476,3.749,3.754,3.7661,3.7669,3.7676,3.7734,3.775,3.7763,0,0,0,0,0,0,3.7249,3.7275,3.726,3.735,3.7378,3.7401,3.7447,3.7429,3.7466,3.7459,3.7448,3.7454,3.7531,3.7543,3.7498,3.7632,3.7583,3.7593,3.7621,3.7637,3.7649,3.7644,3.7446,0,0,0,0,0,3.7272,3.7322,3.7341,3.7419,3.7434,3.7438,3.7465,3.7457,3.7485,3.7496,3.751,3.7537,3.758,3.7609,3.765,3.7741,3.7745,3.7782,3.7794,3.7804,3.7813,3.7859,3.7875,3.7704,3.7704,3.7704,0,0,3.7319,3.734,3.7372,3.743,3.7451,3.7501,3.7448,3.7504,3.754,3.7504,3.7574,3.7585,3.7614,3.7696,3.7732,3.7708,3.7861,3.7813,3.7821,3.7825,3.7868,3.7884,3.7898,3.7709,3.7709,3.7708,0,0,3.7431,3.7453,3.7518,3.754,3.7572,3.7574,3.759,3.7616,3.7622,3.7692,3.7666,3.7708,3.7784,3.7805,3.7825,3.7943,3.7919,3.7956,3.8019,3.8064,3.8078,3.8089,3.8129,3.8144,3.7965,3.7966,3.7966,0,3.7486,3.7562,3.7554,3.7612,3.7637,3.7607,3.7672,3.7693,3.7736,3.7753,3.7726,3.7819,3.7837,3.7921,3.795,3.7968,3.7984,3.7953,3.8077,3.8088,3.8099,3.8137,3.8152,3.797,3.7969,3.7969,3.7968,0,3.7626,3.7679,3.7728,3.7771,3.7802,3.7863,3.7862,3.7894,3.7883,3.7887,3.7958,3.7977,3.8021,3.804,3.803,3.8123,3.8107,3.8079,3.8028,3.812,3.8155,3.817,3.7976,3.7974,3.7973,3.7972,0,0,3.7776,3.7813,3.7831,3.7849,3.7881,3.7921,3.7979,3.8023,3.8049,3.8079,3.8126,3.819,3.8163,3.8187,3.8178,3.8218,3.8307,3.8184,3.8185,3.8205,3.8408,3.8429,3.8446,3.8292,3.8295,3.8297,3.8405,0,3.7888,3.7991,3.7985,3.8081,3.8128,3.8099,3.8149,3.8174,3.8179,3.8218,3.8223,3.8268,3.823,3.8244,3.8282,3.8289,3.8348,3.8281,3.8334,3.8336,3.8327,3.8465,3.8487,3.8588,3.8419,3.8422,3.8423,0,3.8033,3.8068,3.8169,3.8192,3.8212,3.8258,3.8295,3.8334,3.836,3.836,3.8386,3.837,3.8427,3.8376,3.8452,3.8406,3.8428,3.8434,3.8437,3.8441,3.8384,3.8471,3.862,3.8635,3.8445,3.8444,3.8442,0,3.8129,3.8202,3.8272,3.8288,3.8318,3.835,3.8363,3.8386,3.8412,3.8444,3.846,3.8499,3.8519,3.8549,3.8543,3.8507,3.862,3.8569,3.862,3.862,3.8644,3.8643,3.8798,3.8661,3.866,3.866,3.866,0,3.8254,3.8317,3.8315,3.8358,3.8426,3.8417,3.8484,3.8493,3.8513,3.8555,3.8533,3.8572,3.8563,3.8602,3.8598,3.866,3.867,3.867,3.8668,3.8672,3.8672,3.8685,3.8677,3.8664,3.8663,3.8662,3.8662,0,3.8373,3.8375,3.8449,3.847,3.8477,3.8526,3.8543,3.8582,3.8585,3.8638,3.865,3.8654,3.8699,3.8696,3.8746,3.8743,3.8819,3.8809,3.8811,3.8808,3.8859,3.8853,3.9027,3.9048,3.8898,3.89,3.8901,0,3.8453,3.85,3.8526,3.8553,3.8569,3.8613,3.8639,3.8631,3.8659,3.869,3.8725,3.8767,3.8801,3.8872,3.8878,3.8916,3.8906,3.8964,3.8911,3.8913,3.8905,3.8901,3.8905,3.8974,3.8976,3.8977,3.8978,0,3.8592,3.859,3.863,3.8669,3.87,3.873,3.8758,3.8781,3.8775,3.8807,3.8853,3.8879,3.8929,3.897,3.9006,3.9017,3.8996,3.8995,3.9008,3.9012,3.901,3.901,3.8837,3.8991,3.899,3.8989,3.8988,3.8988,3.8693,3.8733,3.8757,3.88,3.882,3.8846,3.8883,3.889,3.8928,3.897,3.8962,3.9012,3.9034,3.908,3.9094,3.9132,3.9111,3.9131,3.9136,3.9141,3.9146,3.9005,3.9139,3.9138,3.9138,3.9138,3.9137,0,3.883,3.8844,3.8884,3.8923,3.8956,3.8935,3.8964,3.8992,3.9037,3.906,3.9093,3.9144,3.9184,3.9193,3.923,3.9258,3.925,3.9268,3.9265,3.9268,3.9163,3.9147,3.9275,3.9275,3.9275,3.9275,3.9275,3.9275,3.8905,3.897,3.8971,3.9045,3.9058,3.9108,3.9126,3.9148,3.9166,3.9224,3.9257,3.9263,3.928,3.9318,3.9352,3.9354,3.9368,3.939,3.9388,3.9289,3.9276,3.9262,3.9247,3.9394,3.9394,3.9489,3.949,3.949]}]]